When you browse on this site, cookies collect data to enhance your experience and personalize the content and advertising you see.
Visit our Privacy Policy to learn more. By continuing to use the site, you agree to this use of cookies and data.
  • In Hungary
  • List of Countries
  • For 7 days
  • Water Temperature
  • Weather Map
  • News
  • Weather Widgets
  • user-avatar
    Login

    Hourly Weather Lutowko

    Today, 14 November, Thursday

    Time Temperature Precipitation Wind Pressure Humidity
    00:00 +3°C° 0.7 mm 3 mps 740 mmHg 93%
    01:00 +3°C° 0 mm 4 mps 741 mmHg 94%
    02:00 +3°C° 0.4 mm 4 mps 741 mmHg 94%
    03:00 +3°C° 0.4 mm 4 mps 741 mmHg 94%
    04:00 +3°C° 0.4 mm 4 mps 742 mmHg 95%
    05:00 +1°C° 0.1 mm 4 mps 743 mmHg 94%
    06:00 +2°C° 0.1 mm 3 mps 743 mmHg 94%
    07:00 +3°C° 0 mm 2 mps 744 mmHg 94%
    08:00 +2°C° 0 mm 3 mps 745 mmHg 91%
    09:00 +3°C° 0 mm 3 mps 746 mmHg 87%
    10:00 +3°C° 0 mm 3 mps 746 mmHg 84%
    11:00 +4°C° 0 mm 3 mps 747 mmHg 82%
    12:00 +6°C° 0 mm 2 mps 747 mmHg 79%
    13:00 +6°C° 0 mm 2 mps 747 mmHg 76%
    14:00 +6°C° 0 mm 2 mps 748 mmHg 79%
    15:00 +5°C° 0 mm 2 mps 748 mmHg 82%
    16:00 +5°C° 0 mm 2 mps 748 mmHg 84%
    17:00 +4°C° 0 mm 2 mps 749 mmHg 86%
    18:00 +4°C° 0 mm 2 mps 749 mmHg 88%
    19:00 +2°C° 0 mm 3 mps 749 mmHg 90%
    20:00 +2°C° 0 mm 3 mps 749 mmHg 89%
    21:00 +2°C° 0 mm 3 mps 749 mmHg 89%
    22:00 +2°C° 0 mm 3 mps 749 mmHg 88%
    23:00 +1°C° 0 mm 4 mps 749 mmHg 88%

    Tomorrow, 15 November, Friday

    Time Temperature Precipitation Wind Pressure Humidity
    00:00 +1°C° 0 mm 4 mps 749 mmHg 87%
    01:00 +1°C° 0 mm 5 mps 749 mmHg 87%
    02:00 +1°C° 0 mm 5 mps 749 mmHg 88%
    03:00 +1°C° 0 mm 5 mps 749 mmHg 88%
    04:00 +1°C° 0 mm 5 mps 748 mmHg 89%
    05:00 +1°C° 0 mm 5 mps 748 mmHg 90%
    06:00 +1°C° 0 mm 6 mps 748 mmHg 91%
    07:00 +1°C° 0 mm 6 mps 748 mmHg 92%
    08:00 +2°C° 0 mm 6 mps 748 mmHg 93%
    09:00 +3°C° 0 mm 5 mps 748 mmHg 94%
    10:00 +5°C° 0 mm 5 mps 748 mmHg 94%
    11:00 +6°C° 0 mm 5 mps 747 mmHg 94%
    12:00 +5°C° 0 mm 6 mps 747 mmHg 94%
    13:00 +7°C° 0 mm 6 mps 747 mmHg 94%
    14:00 +7°C° 0 mm 6 mps 746 mmHg 93%
    15:00 +7°C° 0 mm 6 mps 746 mmHg 93%
    16:00 +8°C° 0 mm 6 mps 746 mmHg 93%
    17:00 +7°C° 0 mm 6 mps 746 mmHg 93%
    18:00 +7°C° 0 mm 6 mps 746 mmHg 93%
    19:00 +7°C° 0 mm 6 mps 746 mmHg 93%
    20:00 +7°C° 0 mm 6 mps 746 mmHg 93%
    21:00 +7°C° 0 mm 5 mps 746 mmHg 94%
    22:00 +7°C° 0 mm 5 mps 745 mmHg 94%
    23:00 +7°C° 0 mm 5 mps 745 mmHg 95%

    Day after tomorrow, 16 November, Saturday

    Time Temperature Precipitation Wind Pressure Humidity
    00:00 +7°C° 0 mm 5 mps 745 mmHg 95%
    01:00 +7°C° 0 mm 5 mps 745 mmHg 95%
    02:00 +7°C° 0 mm 5 mps 745 mmHg 94%
    03:00 +7°C° 0 mm 5 mps 744 mmHg 94%
    04:00 +7°C° 0 mm 5 mps 744 mmHg 93%
    05:00 +7°C° 0 mm 5 mps 744 mmHg 92%
    06:00 +7°C° 0 mm 5 mps 744 mmHg 90%
    07:00 +7°C° 0 mm 5 mps 743 mmHg 88%
    08:00 +8°C° 0 mm 5 mps 743 mmHg 84%
    09:00 +8°C° 0 mm 5 mps 743 mmHg 80%
    10:00 +9°C° 0 mm 6 mps 743 mmHg 76%
    11:00 +10°C° 0 mm 6 mps 743 mmHg 74%
    12:00 +11°C° 0 mm 6 mps 743 mmHg 72%
    13:00 +13°C° 0 mm 6 mps 743 mmHg 70%
    14:00 +11°C° 0.1 mm 6 mps 743 mmHg 74%
    15:00 +10°C° 0.1 mm 6 mps 744 mmHg 79%
    16:00 +9°C° 0.1 mm 6 mps 744 mmHg 84%
    17:00 +8°C° 0 mm 6 mps 745 mmHg 83%
    18:00 +7°C° 0 mm 5 mps 746 mmHg 82%
    19:00 +6°C° 0 mm 5 mps 747 mmHg 81%
    20:00 +5°C° 0 mm 5 mps 748 mmHg 81%
    21:00 +5°C° 0 mm 5 mps 749 mmHg 80%
    22:00 +3°C° 0 mm 5 mps 749 mmHg 80%
    23:00 +4°C° 0 mm 4 mps 750 mmHg 81%

    17 November, Sunday

    Time Temperature Precipitation Wind Pressure Humidity
    00:00 +3°C° 0 mm 4 mps 750 mmHg 82%
    01:00 +3°C° 0 mm 3 mps 750 mmHg 83%
    02:00 +3°C° 0 mm 3 mps 751 mmHg 85%
    03:00 +3°C° 0 mm 2 mps 751 mmHg 86%
    04:00 +3°C° 0 mm 2 mps 751 mmHg 88%
    05:00 +3°C° 0 mm 2 mps 751 mmHg 87%
    06:00 +3°C° 0 mm 2 mps 751 mmHg 86%
    07:00 +3°C° 0 mm 2 mps 751 mmHg 86%
    08:00 +4°C° 0 mm 2 mps 751 mmHg 82%
    09:00 +5°C° 0 mm 2 mps 751 mmHg 78%
    10:00 +5°C° 0 mm 3 mps 751 mmHg 74%
    11:00 +7°C° 0 mm 3 mps 751 mmHg 74%
    12:00 +7°C° 0 mm 4 mps 750 mmHg 74%
    13:00 +7°C° 0 mm 4 mps 750 mmHg 74%
    14:00 +7°C° 0 mm 4 mps 749 mmHg 78%
    15:00 +7°C° 0 mm 4 mps 749 mmHg 81%
    16:00 +7°C° 0 mm 5 mps 748 mmHg 85%
    17:00 +7°C° 0 mm 5 mps 748 mmHg 86%
    18:00 +7°C° 0 mm 5 mps 748 mmHg 88%
    19:00 +7°C° 0 mm 5 mps 748 mmHg 89%
    20:00 +7°C° 0 mm 5 mps 747 mmHg 90%
    21:00 +7°C° 0 mm 5 mps 747 mmHg 91%
    22:00 +7°C° 0 mm 5 mps 747 mmHg 92%
    23:00 +7°C° 0 mm 5 mps 746 mmHg 92%

    18 November, Monday

    Time Temperature Precipitation Wind Pressure Humidity
    00:00 +6°C° 0 mm 5 mps 746 mmHg 93%
    01:00 +6°C° 0 mm 5 mps 745 mmHg 93%
    02:00 +6°C° 0 mm 5 mps 745 mmHg 94%
    03:00 +6°C° 0 mm 5 mps 744 mmHg 95%
    04:00 +6°C° 0 mm 5 mps 744 mmHg 96%
    05:00 +6°C° 0 mm 5 mps 744 mmHg 95%
    06:00 +6°C° 0 mm 5 mps 743 mmHg 95%
    07:00 +6°C° 0 mm 5 mps 743 mmHg 95%
    08:00 +6°C° 0 mm 5 mps 743 mmHg 94%
    09:00 +7°C° 0 mm 4 mps 743 mmHg 92%
    10:00 +7°C° 0 mm 4 mps 743 mmHg 91%
    11:00 +8°C° 0 mm 4 mps 743 mmHg 87%
    12:00 +8°C° 0 mm 4 mps 743 mmHg 84%
    13:00 +10°C° 0 mm 4 mps 742 mmHg 81%
    14:00 +8°C° 0 mm 4 mps 742 mmHg 82%
    15:00 +8°C° 0 mm 4 mps 742 mmHg 83%
    16:00 +8°C° 0 mm 4 mps 742 mmHg 85%
    17:00 +8°C° 0 mm 4 mps 742 mmHg 84%
    18:00 +9°C° 0 mm 5 mps 742 mmHg 83%
    19:00 +9°C° 0 mm 5 mps 743 mmHg 83%
    20:00 +8°C° 0 mm 5 mps 743 mmHg 85%
    21:00 +8°C° 0 mm 5 mps 744 mmHg 88%
    22:00 +7°C° 0 mm 4 mps 744 mmHg 90%
    23:00 +6°C° 0 mm 4 mps 745 mmHg 89%

    19 November, Tuesday

    Time Temperature Precipitation Wind Pressure Humidity
    00:00 +5°C° 0 mm 4 mps 746 mmHg 89%
    01:00 +5°C° 0 mm 3 mps 746 mmHg 88%
    02:00 +4°C° 0 mm 3 mps 747 mmHg 86%
    03:00 +4°C° 0 mm 3 mps 747 mmHg 84%
    04:00 +3°C° 0 mm 3 mps 747 mmHg 82%
    05:00 +3°C° 0 mm 3 mps 748 mmHg 83%
    06:00 +3°C° 0 mm 3 mps 748 mmHg 84%
    07:00 +3°C° 0 mm 4 mps 748 mmHg 85%
    08:00 +3°C° 0 mm 4 mps 749 mmHg 81%
    09:00 +4°C° 0 mm 4 mps 749 mmHg 76%
    10:00 +5°C° 0 mm 4 mps 750 mmHg 72%
    11:00 +5°C° 0 mm 4 mps 750 mmHg 70%
    12:00 +7°C° 0 mm 3 mps 750 mmHg 67%
    13:00 +7°C° 0 mm 3 mps 750 mmHg 65%
    14:00 +7°C° 0 mm 2 mps 750 mmHg 68%
    15:00 +6°C° 0 mm 2 mps 750 mmHg 71%
    16:00 +6°C° 0 mm 2 mps 750 mmHg 74%
    17:00 +5°C° 0 mm 2 mps 751 mmHg 75%
    18:00 +5°C° 0 mm 2 mps 751 mmHg 75%
    19:00 +5°C° 0 mm 2 mps 751 mmHg 76%
    20:00 +5°C° 0 mm 2 mps 751 mmHg 76%
    21:00 +6°C° 0 mm 1 mps 751 mmHg 77%
    22:00 +6°C° 0 mm 1 mps 751 mmHg 77%
    23:00 +6°C° 0.1 mm 1 mps 751 mmHg 79%
    Show more